Change the Weather History Date:

Tuesday, December 25, 2012

  Actual Average Record
Temperature  
Mean Temperature 2 °F -  
Max Temperature 10 °F 15 °F 37 °F (1996)
Min Temperature -7 °F - -32 °F (1957)
Degree Days  
Heating Degree Days 63 57  
Month to date heating degree days 1664 1373  
Since 1 July heating degree days 5879 5471  
Cooling Degree Days 0    
Month to date cooling degree days 0  
Year to date cooling degree days 0  
Moisture  
Dew Point 0 °F    
Average Humidity 0    
Maximum Humidity 0    
Minimum Humidity 0    
Precipitation  
Precipitation 0.06 in 0.04 in 0.38 in (1914)
Month to date precipitation 0.48 0.87  
Year to date precipitation 18.61 16.60  
Snow  
Snow 1.20 in 0.50 in 5.50 in (2004)
Month to date snowfall 13.3 11.6  
Since 1 July snowfall 15.9 28.9  
Snow Depth 12.00 in    
Sea Level Pressure  
Sea Level Pressure 29.51 in    
Wind  
Wind Speed 8 mph (ESE)    
Max Wind Speed 20 mph    
Max Gust Speed 25 mph    
Visibility 6 miles    
Events Snow    
T = Trace of Precipitation, MM = Missing Value Source: NWS Daily Summary

Daily Weather History Graph

Daily Weather History Graph

Search for Another Location

Airport or City:

Trip Planner

Search our weather history database for the weather conditions in past years. The results will help you decide how hot, cold, wet, or windy it might be!

Date:

Astronomy

Dec. 25, 2012 Rise Set
Actual Time 12:03 PM AKST 4:00 PM AKST
Civil Twilight 10:41 AM AKST 5:22 PM AKST
Nautical Twilight 9:31 AM AKST 6:33 PM AKST
Astronomical Twilight 8:30 AM AKST 7:34 PM AKST
Moon 2:42 PM AKST (12/25) 9:21 AM AKST (12/25)
Length of Visible Light 6h 41m
Length of Day
3h 57m
Waxing Gibbous, 94% of the Moon is Illuminated
Dec 25
Waxing Gibbous
Dec 28
Full
Jan 4
Last Quarter
Jan 11
New
Jan 18
First Quarter

Hourly Weather History & Observations

Time (AKST) Temp. Windchill Dew Point Humidity Pressure Visibility Wind Dir Wind Speed Gust Speed Precip Events Conditions
12:53 AM -2.0 °F - -7.6 °F 77% 29.48 in 10.0 mi Calm Calm - N/A   Partly Cloudy
1:53 AM -4.9 °F - -7.6 °F 88% 29.48 in 10.0 mi Calm Calm - N/A   Clear
3:53 AM -2.0 °F - -9.4 °F 71% 29.47 in 10.0 mi Calm Calm - N/A   Partly Cloudy
4:53 AM -2.0 °F - -9.4 °F 71% 29.47 in 10.0 mi Calm Calm - N/A   Mostly Cloudy
5:53 AM 1.0 °F - -5.8 °F 73% 29.46 in 10.0 mi Calm Calm - N/A   Overcast
6:53 AM 1.9 °F -5.6 °F 1.4 °F 98% 29.46 in 10.0 mi ESE 3.5 mph - N/A   Overcast
7:53 AM 3.0 °F - -5.8 °F 67% 29.45 in 10.0 mi Calm Calm - N/A   Mostly Cloudy
8:53 AM 3.9 °F - - N/A% 29.46 in 7.0 mi Calm Calm - 0.00 in Snow Light Snow
9:53 AM 5.0 °F - - N/A% 29.46 in 10.0 mi Calm Calm - 0.00 in   Overcast
10:53 AM 9.0 °F -4.2 °F - N/A% 29.47 in 2.0 mi East 9.2 mph - 0.01 in Snow Light Snow
11:14 AM 10.4 °F -2.4 °F - N/A% 29.47 in 5.0 mi ENE 9.2 mph - 0.00 in Snow Light Snow
11:53 AM 9.0 °F -5.1 °F - N/A% 29.47 in 5.0 mi ENE 10.4 mph - 0.00 in Snow Light Snow
12:12 PM 10.4 °F -3.3 °F - N/A% 29.47 in 2.5 mi ENE 10.4 mph - 0.01 in Snow Light Snow
12:53 PM 10.0 °F -6.5 °F - N/A% 29.47 in 1.5 mi ENE 15.0 mph 20.7 mph 0.02 in Snow Light Snow
1:32 PM 8.6 °F -9.5 °F - N/A% 29.47 in 1.8 mi East 17.3 mph - 0.00 in Snow Light Snow
1:47 PM 10.4 °F -6.6 °F 5.0 °F 79% 29.48 in 2.0 mi East 16.1 mph - 0.00 in Snow Light Snow
1:51 PM 10.4 °F -6.0 °F 5.0 °F 79% 29.48 in 1.8 mi East 15.0 mph - 0.00 in Snow Light Snow
1:53 PM 10.0 °F -6.5 °F 5.0 °F 80% 29.49 in 1.8 mi East 15.0 mph - 0.00 in Snow Light Snow
2:03 PM 10.4 °F -4.1 °F - N/A% 29.49 in 2.5 mi SE 11.5 mph - 0.00 in Snow Light Snow
2:12 PM - - - N/A% 29.49 in 1.5 mi SE 12.7 mph - 0.00 in   Unknown
2:35 PM 10.4 °F -3.3 °F 5.0 °F 79% 29.50 in 6.0 mi ESE 10.4 mph - 0.00 in Snow Light Snow
2:53 PM 8.6 °F -5.5 °F 5.0 °F 85% 29.51 in 2.5 mi ESE 10.4 mph - 0.00 in Snow Light Snow
3:07 PM - - - N/A% 29.51 in 1.8 mi ESE 9.2 mph - 0.01 in   Unknown
3:32 PM - - - N/A% 29.51 in 2.0 mi East 10.4 mph - 0.01 in   Unknown
3:41 PM - - - N/A% 29.52 in 3.0 mi East 9.2 mph - 0.01 in   Unknown
3:53 PM 8.6 °F -5.5 °F 3.2 °F 79% 29.52 in 3.0 mi East 10.4 mph - 0.01 in Snow Light Snow
4:45 PM 8.6 °F -4.7 °F 3.2 °F 79% 29.53 in 1.2 mi East 9.2 mph - 0.01 in Snow Light Snow
4:53 PM 8.6 °F -5.5 °F 3.2 °F 79% 29.54 in 1.8 mi ESE 10.4 mph - 0.01 in Snow Light Snow
5:30 PM 8.6 °F -5.5 °F 5.0 °F 85% 29.54 in 1.5 mi ESE 10.4 mph - 0.01 in Snow Light Snow
5:48 PM 8.6 °F -5.5 °F 5.0 °F 85% 29.53 in 3.0 mi ESE 10.4 mph - 0.01 in Snow Light Snow
5:53 PM 8.1 °F -6.2 °F 5.0 °F 87% 29.54 in 2.5 mi ESE 10.4 mph - 0.01 in Snow Light Snow
6:53 PM 8.1 °F -10.2 °F 5.0 °F 87% 29.54 in 4.0 mi ESE 17.3 mph - 0.00 in Snow Light Snow
7:53 PM 7.0 °F -9.1 °F 3.0 °F 84% 29.55 in 10.0 mi ESE 12.7 mph - 0.00 in Snow Light Snow
8:53 PM 3.0 °F -13.3 °F -0.0 °F 87% 29.56 in 10.0 mi ESE 11.5 mph - 0.00 in   Mostly Cloudy
9:34 PM 5.0 °F -10.0 °F 1.4 °F 85% 29.57 in 10.0 mi ESE 10.4 mph - N/A   Scattered Clouds
9:53 PM 1.9 °F -16.2 °F -0.9 °F 88% 29.58 in 10.0 mi ESE 13.8 mph - N/A   Scattered Clouds
10:51 PM 5.0 °F -10.0 °F 1.4 °F 85% 29.59 in 10.0 mi SE 10.4 mph - N/A   Overcast
10:53 PM 5.0 °F -10.0 °F 1.0 °F 84% 29.60 in 10.0 mi SE 10.4 mph - N/A   Overcast
11:53 PM 6.1 °F -2.8 °F 1.9 °F 83% 29.61 in 6.0 mi East 4.6 mph - 0.00 in Snow Light Snow